Starlink 32148

operational
NORAD ID: 60263 Int'l Des: 2024-131 Owner: SPXS Country: US Constellation: starlink
LEOCIRCULAR

About Starlink 32148

Description loading...

Live Position

Loading 3D Globe...

Upcoming Passes

Altitude History

Altitude vs Time

uPlot chart will show altitude changes over time

Two-Line Element Set

1 60263U 24131J 25349.46888129 .00001143 00000-0 50737-4 0 9992
2 60263 53.1594 83.6536 0001348 79.4003 280.7150 15.30194852 78877
Epoch: Dec 15, 2025 • Age: 33 hours

Current Status

Altitude 475.3 km
Velocity 7.63 km/s
Sub-Earth Point 6.36°N, 53.23°E
Launch Date Jul 27, 2024
Age 1.3 years
Type internet

Technical Details

Classification Payload
Mass 730.00 kg
Dry Mass 700.00 kg
Total Mass 730.00 kg
Length 0.30 m
Diameter 4.10 m
Span 29.00 m
Shape Box + pan
Manufacturer SPXS
Bus Type Starlink V2M
Phase Status In Orbit
Owner/State SPXS/US

Large Constellations

Loading constellations...